Location: Unspecified
(43.4354°N, 0.0000°E)
Time: 17:29:00
(UTC+00:00)

Vanguard 2 Rocket - Pass Details

Date: 26 June 2019
Orbit: 553 x 3327 km, 32.9° (Epoch: 18 October)

Event Time Altitude Azimuth Distance (km) Brightness Sun altitude
Rises 00:07:59 0° 265° (W) 4,516 10.4 -23.2°
Reaches altitude 10° 00:10:39 10° 259° (W) 3,841 9.9 -23.2°
Maximum altitude 00:20:46 47° 190° (S) 2,865 8.9 -23.1°
Drops below altitude 10° 00:37:02 10° 125° (SE) 6,002 10.8 -22.7°
Sets 00:42:28 0° 121° (ESE) 7,214 11.3 -22.6°
